TimeEST,TemperatureF,Dew PointF,Humidity,Sea Level PressureIn,VisibilityMPH,Wind Direction,Wind SpeedMPH,Gust SpeedMPH,PrecipitationIn,Events,Conditions,WindDirDegrees,DateUTC
12:53 AM,30.0,23.0,75,30.19,5.0,East,4.6,-,N/A,,Haze,90,2013-01-06 05:53:00
1:53 AM,30.9,24.1,76,30.19,4.0,ESE,3.5,-,0.00,Snow,Light Snow,110,2013-01-06 06:53:00
2:05 AM,30.2,24.8,80,30.17,2.0,ESE,3.5,-,0.00,Snow,Light Snow,110,2013-01-06 07:05:00
2:12 AM,30.2,24.8,80,30.17,1.5,Calm,Calm,-,0.00,Snow,Light Snow,0,2013-01-06 07:12:00
2:27 AM,30.2,26.6,86,30.16,2.0,Calm,Calm,-,0.00,Snow,Light Snow,0,2013-01-06 07:27:00
2:31 AM,30.2,26.6,86,30.16,1.8,East,3.5,-,0.00,Snow,Light Snow,100,2013-01-06 07:31:00
2:42 AM,30.2,26.6,86,30.15,2.5,ESE,4.6,-,0.00,Snow,Light Snow,120,2013-01-06 07:42:00
2:51 AM,30.2,26.6,86,30.15,3.0,ESE,3.5,-,0.00,Snow,Light Snow,110,2013-01-06 07:51:00
2:53 AM,30.0,26.1,85,30.16,3.0,ESE,3.5,-,0.00,Snow,Light Snow,110,2013-01-06 07:53:00
3:53 AM,28.9,26.1,89,30.14,3.0,Calm,Calm,-,0.00,,Scattered Clouds,0,2013-01-06 08:53:00
4:38 AM,28.4,24.8,86,30.11,2.5,Calm,Calm,-,N/A,,Clear,0,2013-01-06 09:38:00
5:25 AM,24.8,24.8,100,30.11,0.5,Calm,Calm,-,N/A,Fog,Light Freezing Fog,0,2013-01-06 10:25:00
5:27 AM,24.8,24.8,100,30.11,0.2,Calm,Calm,-,N/A,Fog,Light Freezing Fog,0,2013-01-06 10:27:00
5:45 AM,24.8,23.0,93,30.11,0.8,Calm,Calm,-,N/A,,Mist,0,2013-01-06 10:45:00
5:51 AM,26.6,23.0,86,30.11,1.2,Calm,Calm,-,N/A,,Partly Cloudy,0,2013-01-06 10:51:00
5:53 AM,27.0,24.1,89,30.12,1.0,Calm,Calm,-,N/A,,Scattered Clouds,0,2013-01-06 10:53:00
6:49 AM,24.8,21.2,86,30.11,0.8,Calm,Calm,-,N/A,,Scattered Clouds,0,2013-01-06 11:49:00
6:53 AM,25.0,21.9,88,30.13,0.5,Calm,Calm,-,N/A,Fog,Light Freezing Fog,0,2013-01-06 11:53:00
7:53 AM,26.1,24.1,92,30.13,0.5,Calm,Calm,-,N/A,Fog,Light Freezing Fog,0,2013-01-06 12:53:00
8:53 AM,28.9,27.0,92,30.14,1.0,Calm,Calm,-,N/A,,Overcast,0,2013-01-06 13:53:00
9:53 AM,30.9,28.9,92,30.13,1.0,Calm,Calm,-,N/A,,Overcast,0,2013-01-06 14:53:00
10:25 AM,33.8,30.2,87,30.10,2.5,Calm,Calm,-,N/A,,Overcast,0,2013-01-06 15:25:00
10:39 AM,33.8,30.2,87,30.10,3.0,Calm,Calm,-,N/A,,Mostly Cloudy,0,2013-01-06 15:39:00
10:53 AM,36.0,30.0,79,30.11,4.0,Calm,Calm,-,N/A,,Haze,0,2013-01-06 15:53:00
11:53 AM,41.0,30.0,65,30.08,7.0,NW,5.8,-,N/A,,Clear,310,2013-01-06 16:53:00
12:53 PM,43.0,27.0,53,30.04,9.0,West,12.7,-,N/A,,Mostly Cloudy,270,2013-01-06 17:53:00
1:53 PM,44.1,25.0,47,30.01,10.0,WSW,9.2,-,N/A,,Overcast,250,2013-01-06 18:53:00
2:53 PM,45.0,25.0,46,30.01,10.0,West,18.4,-,N/A,,Overcast,260,2013-01-06 19:53:00
3:53 PM,44.1,25.0,47,30.01,10.0,West,11.5,-,N/A,,Overcast,270,2013-01-06 20:53:00
4:53 PM,42.1,26.1,53,30.02,10.0,West,9.2,-,N/A,,Overcast,260,2013-01-06 21:53:00
5:53 PM,41.0,26.1,55,30.04,10.0,West,4.6,-,N/A,,Overcast,260,2013-01-06 22:53:00
6:53 PM,39.9,26.1,58,30.05,10.0,Calm,Calm,-,N/A,,Overcast,0,2013-01-06 23:53:00
7:53 PM,39.0,26.1,60,30.06,10.0,WNW,3.5,-,N/A,,Overcast,290,2013-01-07 00:53:00
8:53 PM,37.9,26.1,62,30.06,10.0,West,4.6,-,N/A,,Overcast,260,2013-01-07 01:53:00
9:53 PM,39.0,26.1,60,30.08,10.0,Calm,Calm,-,N/A,,Overcast,0,2013-01-07 02:53:00
10:53 PM,37.0,27.0,67,30.09,10.0,WNW,3.5,-,N/A,,Overcast,300,2013-01-07 03:53:00
11:53 PM,37.0,27.0,67,30.12,10.0,West,5.8,-,N/A,,Overcast,280,2013-01-07 04:53:00